Location: Holcomb Observatory
(44.4922°N, 73.1654°W)
Time: 23:12:09
(UTC-04:00)

Cosmos 2360 Rocket - Visible Passes

Search period start: 21 October 2014 00:00
Search period end: 31 October 2014 00:00
Orbit: 833 x 847 km, 71.0° (Epoch: 20 October)

Date Brightness Start Highest point End Pass type
(mag) Time Alt. Az. Time Alt. Az. Time Alt. Az.
21 Oct 4.5 04:35:05 11° SSE 04:35:05 11° SSE 04:35:11 10° SSE visible
21 Oct 3.2 19:16:35 10° SW 19:22:01 47° WNW 19:27:30 10° NNE visible
21 Oct 5.1 21:06:45 10° NW 21:07:34 10° NW 21:08:24 10° NNW visible
22 Oct 3.2 19:00:56 10° SW 19:06:25 49° WNW 19:11:56 10° NNE visible
22 Oct 5.0 20:50:31 10° NW 20:51:54 11° NW 20:53:17 10° NNW visible
23 Oct 3.1 18:45:18 10° SW 18:50:48 52° WNW 18:56:22 10° NNE visible
23 Oct 5.0 20:34:28 10° NW 20:36:14 11° NW 20:38:00 10° NNW visible
24 Oct 3.0 18:29:39 10° SW 18:35:12 55° WNW 18:40:47 10° NNE visible
24 Oct 4.9 20:18:29 10° WNW 20:20:34 12° NW 20:22:39 10° NNW visible
25 Oct 2.9 18:14:01 10° SW 18:19:36 58° WNW 18:25:13 10° NNE visible
25 Oct 4.9 20:02:33 10° WNW 20:04:54 13° NW 20:07:15 10° NNW visible
26 Oct 4.8 19:46:39 10° WNW 19:49:14 13° NW 19:51:50 10° NNW visible
27 Oct 4.8 19:30:46 10° WNW 19:33:34 14° NW 19:36:23 10° N visible
28 Oct 4.7 19:14:55 10° WNW 19:17:55 14° NW 19:20:56 10° N visible
29 Oct 4.7 18:59:04 10° WNW 19:02:16 15° NW 19:05:28 10° N visible
30 Oct 4.6 18:43:15 10° W 18:46:37 16° NW 18:49:59 10° N visible
